Regional Weather Roundup
Issued by NWS Green Bay, WI

Home | Current Version | Previous Version | Graphics & Text | Print | Product List | Glossary Off
Versions: 1 2 3 4 5 6 7 8 9 10 11 12 13 14 15 16 17 18 19 20 21 22 23 24 25 26 27 28 29 30 31 32 33 34 35 36 37 38 39 40 41 42 43 44 45 46 47 48 49 50

000
ASUS43 KGRB 280010
RWRGRB

NORTH-CENTRAL AND NORTHEAST WISCONSIN REGIONAL WEATHER ROUNDUP
NATIONAL WEATHER SERVICE GREEN BAY WI
600 PM CST SAT DEC 27 2014

WIZ005-009-010>012-018-019-280100-
NORTH CENTRAL WISCONSIN

CITY           SKY/WX    TMP DP  RH WIND       PRES   REMARKS
IRONWOOD       CLEAR     19  16  86 W6        29.95R
MANITOWISH WTR MOCLDY    20  18  89 W10       29.95R WCI   9
ARBOR VITAE    PTCLDY    23  19  85 W3        29.95R
EAGLE RIVER    CLOUDY    25  20  83 W7        29.93S
LAND O LAKES   CLOUDY    25  22  89 W7        29.93R
RHINELANDER    CLOUDY    24  20  84 W10       29.95R
PHILLIPS         N/A     18  15  89 W3        29.99R
ANTIGO         CLOUDY    26  22  85 W13       29.97R
TOMAHAWK       CLOUDY    23  19  85 W6        29.98R
MERRILL        CLOUDY    26  20  80 W7        30.00R
$$

WIZ013-073-280100-
NORTHEAST WISCONSIN

CITY           SKY/WX    TMP DP  RH WIND       PRES   REMARKS
IRON MOUNTAIN    N/A     26  23  88 W5        29.92R
MARINETTE      CLOUDY    32  30  93 W3        29.95R
OCONTO         CLOUDY    32  32 100 W3        29.97R
$$

WIZ017-030-035>037-045-280100-
CENTRAL WISCONSIN

CITY           SKY/WX    TMP DP  RH WIND       PRES   REMARKS
MEDFORD        CLOUDY    21  17  84 W12       30.01R WCI   9
WAUSAU         CLOUDY    26  20  77 W9G18     30.00R
MOSINEE        CLOUDY    27  25  93 W10G17    30.02R
MARSHFIELD     CLOUDY    24  19  81 NW14G21   30.03R
WISC RAPIDS    CLOUDY    27  21  78 W10       30.06R
STEVENS POINT  CLOUDY    25  21  83 W7G18     30.03R
WAUPACA        CLOUDY    32  26  77 NW14      30.02R
SHAWANO        CLOUDY    34  31  88 W7        29.99R
CLINTONVILLE   CLOUDY    32  28  86 NW14      30.00R
$$

WIZ038-039-048-051-280100-
FOX VALLEY

CITY           SKY/WX    TMP DP  RH WIND       PRES   REMARKS
NWS GREEN BAY  CLOUDY    34  30  85 W7        29.99R
APPLETON       MOCLDY    34  30  86 W12       29.99R
OSHKOSH        MOCLDY    32  27  81 W9        30.00R
FOND DU LAC    CLOUDY    32  27  81 W14       30.01R
$$

WIZ022-050-052-280100-
EAST CENTRAL WISCONSIN

CITY           SKY/WX    TMP DP  RH WIND       PRES   REMARKS
STURGEON BAY   CLOUDY    32  28  86 W7        29.98R
MANITOWOC      MIX PCPN  34  33  96 NW10      29.99R FOG
SHEBOYGAN      CLOUDY    34  29  82 W10G20    30.00R
$$

LMZ563-521-522-541>543-280100-
LAKESHORE

STATION/POSITION TIME  TEMP    WIND        PRES    VSBY  WAVE
                       AIR SEA DIR/SP/G                  HT/PER
                 (UTC) (F)     (DEG/KT/KT) (MB)    (MI)  (FT/S)
SHEBOYGAN LKSHOR 0000   35 38  290/ 14/ 18 1016.5R
KEWAUNEE LKSHORE 0000   33     310/  9/ 12 1014.0S
ALGOMA MARINA    2300          320/  9/ 12   N/A
NORTHPORT PIER   0000   34     310/ 10/ 14 1013.9R
SISTER BAY LKSHO 2300          340/ 15/ 18   N/A
CHAMBERS ISLAND  0000   33     280/  4/  8 1014.6R
MENOMINEE LKSHOR 0000   33     270/  6/  8 1015.2R
$$



USA.gov is the U.S. government's official web portal to all federal, state and local government web resources and services.